Weather History for EGLL - February, 2014

Change the Weather History Date:

Saturday, February 1, 2014

  Actual Average Record
Temperature  
Mean Temperature 44 °F -  
Max Temperature 48 °F 46 °F 57 °F (2002)
Min Temperature 41 °F 35 °F 26 °F (1998)
Degree Days  
Heating Degree Days 20    
Moisture  
Dew Point 38 °F    
Average Humidity 73    
Maximum Humidity 100    
Minimum Humidity 46    
Precipitation  
Precipitation 0.00 in - - ()
Sea Level Pressure  
Sea Level Pressure 29.24 in    
Wind  
Wind Speed 14 mph ()    
Max Wind Speed 31 mph    
Max Gust Speed 44 mph    
Visibility 8.2 miles    
Events Rain    
Averages and records for this station are not official NWS values.
T = Trace of Precipitation, MM = Missing Value Source: Averaged Metar Reports

Daily Weather History Graph

Daily Weather History Graph

Search for Another Location

Airport or City:

Trip Planner

Search our weather history database for the weather conditions in past years. The results will help you decide how hot, cold, wet, or windy it might be!

Date:

Astronomy

Feb. 01, 2014 Rise Set
Actual Time 7:40 AM GMT 4:51 PM GMT
Civil Twilight 7:04 AM GMT 5:27 PM GMT
Nautical Twilight 6:23 AM GMT 6:07 PM GMT
Astronomical Twilight 5:44 AM GMT 6:46 PM GMT
Moon 8:02 AM GMT (2/1) 7:30 PM GMT (2/1)
Length of Visible Light 10h 23m
Length of Day
9h 11m
Waxing Crescent, 4% of the Moon is Illuminated
Feb 1
Waxing Crescent
Feb 6
First Quarter
Feb 14
Full
Feb 22
Last Quarter
Mar 1
New

Hourly Weather History & Observations

Time (GMT) Temp. Windchill Dew Point Humidity Pressure Visibility Wind Dir Wind Speed Gust Speed Precip Events Conditions
12:00 AM 49 °F - 47 °F 91% 29.09 in 2 mi South 13.8 mph - - Rain Light Drizzle
12:20 AM 48.2 °F - 48.2 °F 100% 29.06 in 6.2 mi SSW 11.5 mph - N/A   Mostly Cloudy
12:50 AM 48.2 °F - 48.2 °F 100% 29.06 in 5.6 mi South 12.7 mph - N/A Rain Light Rain
1:00 AM 49 °F - 47 °F 92% 29.06 in 7 mi South 12.7 mph - - Rain Rain Showers
1:20 AM 50.0 °F - 48.2 °F 94% 29.03 in 6.2 mi South 10.4 mph - N/A Rain Light Rain
1:50 AM 48.2 °F - 48.2 °F 100% 29.03 in 2.8 mi SSW 6.9 mph - N/A Rain Heavy Rain
2:00 AM 49 °F - 48 °F 94% 29.02 in 3 mi SSW 5.8 mph - - Rain Rain
2:20 AM 50.0 °F - 48.2 °F 94% 29.00 in - WSW 15.0 mph - N/A Rain Heavy Rain
2:50 AM 46.4 °F 37.9 °F 41.0 °F 81% 29.03 in 6.2 mi West 25.3 mph - N/A Rain Light Rain Showers
3:00 AM 45 °F - 41 °F 82% 29.05 in 28 mi West 23.0 mph - - Rain Light Rain
3:20 AM 44.6 °F 38.8 °F 41.0 °F 87% 29.06 in 6.2 mi WSW 11.5 mph - N/A   Partly Cloudy
3:50 AM 44.6 °F 39.2 °F 41.0 °F 87% 29.06 in 6.2 mi SW 10.4 mph - N/A   Partly Cloudy
4:00 AM 44 °F - 41 °F 86% 29.08 in 22 mi SW 9.2 mph - - Rain Rain
4:20 AM 44.6 °F 39.7 °F 41.0 °F 87% 29.09 in - SW 9.2 mph - N/A   Clear
4:50 AM 44.6 °F 38.8 °F 41.0 °F 87% 29.09 in 6.2 mi SW 11.5 mph - N/A   Partly Cloudy
5:00 AM 44 °F - 40 °F 83% 29.11 in 22 mi SW 12.7 mph - -   Scattered Clouds
5:20 AM 44.6 °F 38.1 °F 39.2 °F 81% 29.12 in 6.2 mi WSW 13.8 mph - N/A   Partly Cloudy
5:50 AM 44.6 °F 38.4 °F 39.2 °F 81% 29.12 in 6.2 mi WSW 12.7 mph - N/A   Partly Cloudy
6:00 AM 43 °F - 38 °F 77% 29.13 in 18 mi SW 15.0 mph - -  
6:20 AM 42.8 °F 35.8 °F 37.4 °F 81% 29.15 in - WSW 13.8 mph - N/A   Clear
6:50 AM 42.8 °F 36.6 °F 37.4 °F 81% 29.15 in - WSW 11.5 mph - N/A   Clear
7:00 AM 41 °F - 37 °F 80% 29.16 in 28 mi SW 13.8 mph - -  
7:20 AM 41.0 °F 34.7 °F 37.4 °F 87% 29.18 in - WSW 10.4 mph - N/A   Clear
7:50 AM 41.0 °F 34.7 °F 37.4 °F 87% 29.18 in - SW 10.4 mph - N/A   Clear
8:00 AM 41 °F - 37 °F 79% 29.20 in 19 mi SW 10.4 mph - -   Scattered Clouds
8:20 AM 41.0 °F 35.2 °F 35.6 °F 81% 29.21 in 6.2 mi SSW 9.2 mph - N/A   Partly Cloudy
8:50 AM 41.0 °F 33.9 °F 35.6 °F 81% 29.21 in 6.2 mi SSW 12.7 mph - N/A   Partly Cloudy
9:00 AM 41 °F - 35 °F 73% 29.22 in 22 mi SSW 12.7 mph - -  
9:20 AM 41.0 °F 33.5 °F 35.6 °F 81% 29.21 in 6.2 mi SSW 13.8 mph - N/A   Partly Cloudy
9:50 AM 42.8 °F 35.1 °F 35.6 °F 76% 29.24 in 6.2 mi SW 16.1 mph 28.8 mph N/A   Partly Cloudy
10:00 AM 43 °F - 35 °F 63% 29.26 in 19 mi SW 16.1 mph - -  
10:20 AM 42.8 °F 34.5 °F 35.6 °F 76% 29.24 in 6.2 mi SW 18.4 mph 31.1 mph N/A   Partly Cloudy
10:50 AM 44.6 °F 36.9 °F 33.8 °F 66% 29.27 in 6.2 mi SW 18.4 mph - N/A   Partly Cloudy
11:00 AM 44 °F - 33 °F 54% 29.28 in 22 mi SW 20.7 mph - -  
11:20 AM 44.6 °F 36.4 °F 33.8 °F 66% 29.27 in 6.2 mi SW 20.7 mph - N/A   Partly Cloudy
11:50 AM 46.4 °F 38.7 °F 33.8 °F 62% 29.27 in 6.2 mi SW 20.7 mph - N/A   Partly Cloudy
12:00 PM 46 °F - 33 °F 50% 29.27 in 25 mi SSW 19.6 mph - -  
12:20 PM 46.4 °F 38.1 °F 32.0 °F 57% 29.27 in 6.2 mi SW 24.2 mph 41.4 mph N/A   Partly Cloudy
12:50 PM 48.2 °F - 33.8 °F 58% 29.27 in 6.2 mi SW 18.4 mph - N/A   Partly Cloudy
1:00 PM 47 °F - 33 °F 46% 29.26 in 22 mi SSW 23.0 mph - -  
1:20 PM 48.2 °F - 33.8 °F 58% 29.27 in 6.2 mi SW 24.2 mph - N/A Rain Light Rain Showers
1:50 PM 48.2 °F - 33.8 °F 58% 29.27 in 6.2 mi SW 31.1 mph 43.7 mph N/A   Scattered Clouds
2:00 PM 48 °F - 35 °F 48% 29.28 in 19 mi SW 23.0 mph - - Rain Rain
2:20 PM 46.4 °F 39.2 °F 35.6 °F 66% 29.27 in 6.2 mi SSW 18.4 mph 29.9 mph N/A   Partly Cloudy
2:50 PM 46.4 °F 39.2 °F 35.6 °F 66% 29.27 in 6.2 mi SSW 18.4 mph - N/A   Scattered Clouds
3:00 PM 47 °F - 36 °F 54% 29.29 in 19 mi SSW 21.9 mph - -   Partly Cloudy
3:20 PM 46.4 °F 39.2 °F 37.4 °F 71% 29.30 in 6.2 mi SSW 18.4 mph - N/A Rain Light Rain Showers
3:50 PM 46.4 °F 39.8 °F 37.4 °F 71% 29.30 in 6.2 mi SSW 16.1 mph - N/A   Scattered Clouds
4:00 PM 47 °F - 37 °F 60% 29.30 in 19 mi SSW 18.4 mph - -   Mostly Cloudy
4:20 PM 46.4 °F 39.2 °F 37.4 °F 71% 29.30 in 6.2 mi SW 18.4 mph - N/A   Scattered Clouds
4:50 PM 46.4 °F 39.2 °F 37.4 °F 71% 29.33 in 6.2 mi SSW 18.4 mph 29.9 mph N/A   Scattered Clouds
5:00 PM 46 °F - 37 °F 61% 29.33 in 16 mi SSW 20.7 mph - -   Scattered Clouds
5:20 PM 46.4 °F 39.0 °F 35.6 °F 66% 29.33 in 6.2 mi SW 19.6 mph 32.2 mph N/A   Scattered Clouds
5:50 PM 46.4 °F 39.0 °F 35.6 °F 66% 29.33 in 6.2 mi SW 19.6 mph - N/A   Partly Cloudy
6:00 PM 46 °F - 35 °F 53% 29.35 in 14 mi SSW 23.0 mph - -   Partly Cloudy
6:20 PM 44.6 °F 37.2 °F 37.4 °F 76% 29.36 in 6.2 mi SSW 17.3 mph - N/A   Partly Cloudy
6:50 PM 44.6 °F 36.4 °F 35.6 °F 71% 29.36 in 6.2 mi SW 20.7 mph - N/A   Partly Cloudy
7:00 PM 46 °F - 36 °F 57% 29.37 in 11 mi SSW 21.9 mph - -   Scattered Clouds
7:20 PM 46.4 °F 38.7 °F 35.6 °F 66% 29.36 in 6.2 mi SSW 20.7 mph - N/A   Partly Cloudy
7:50 PM 44.6 °F 36.6 °F 35.6 °F 71% 29.39 in 6.2 mi SW 19.6 mph 31.1 mph N/A   Partly Cloudy
8:00 PM 46 °F - 36 °F 57% 29.38 in 12 mi SSW 20.7 mph - -   Scattered Clouds
8:20 PM 46.4 °F 39.2 °F 35.6 °F 66% 29.39 in 6.2 mi SSW 18.4 mph 29.9 mph N/A   Partly Cloudy
8:50 PM 46.4 °F 39.0 °F 35.6 °F 66% 29.39 in 6.2 mi SW 19.6 mph 33.4 mph N/A   Partly Cloudy
9:00 PM 46 °F - 35 °F 55% 29.39 in 12 mi SSW 21.9 mph - -   Scattered Clouds
9:20 PM 46.4 °F 39.5 °F 35.6 °F 66% 29.39 in - SSW 17.3 mph - N/A   Clear
9:50 PM 46.4 °F 38.7 °F 35.6 °F 66% 29.39 in 6.2 mi SW 20.7 mph 35.7 mph N/A   Partly Cloudy
10:00 PM 46 °F - 36 °F 57% 29.41 in 12 mi SSW 20.7 mph - -  
10:20 PM 46.4 °F 39.2 °F 37.4 °F 71% 29.42 in - SW 18.4 mph - N/A   Clear
10:50 PM 46.4 °F 39.5 °F 37.4 °F 71% 29.42 in 6.2 mi SSW 17.3 mph 28.8 mph N/A   Partly Cloudy
11:00 PM 46 °F - 37 °F 62% 29.42 in 11 mi SSW 18.4 mph - -   Mostly Cloudy
11:20 PM 46.4 °F 39.2 °F 37.4 °F 71% 29.42 in 6.2 mi SSW 18.4 mph - N/A   Partly Cloudy
11:50 PM 46.4 °F 39.2 °F 37.4 °F 71% 29.42 in 6.2 mi SW 18.4 mph - N/A   Partly Cloudy